SL-16 R/B (25861 NORAD) Tracking and Keplerian Element Data

This shows tracking and keplerian element data for the satellite.

Feedback or suggestion? Click here.




ElementValue
Catalog25861
NameSL-16 R/B
Epoch Orbit4584
Epoch Day345.07089435
Epoch Year2018
RAAN327.3437
Inclination98.1717
Eccentricity0.0016568
Argument of Perigee135.3296
Mean Anonmoly266.5897
Mean Motion14.78507782
Decay Rate1.3E-07
L11 25861U 99039B 18345.07089435 .00000013 00000-0 92568-5 0 9998
L22 25861 98.1717 327.3437 0016568 135.3296 266.5897 14.78507782 45844

Live tracking and technical data element details for SL-16 R/B (NORAD 25861). SL-16 R/B can be tracked NOW for your location showing map with azimuth and elevation plus other details from your city location.

Track the satellite on the map from your city or location and see movement details for azimuth, elevation, latitude, longitude, range, height, and movement on the map or in text.







IsCatalogInMostPopularTable: catalog: 25861, numindb: 40
Update: records affected: 1



GetName: 25861 SL-16 R/B

Hit Count: updated at: Thu, 13 Dec 2018 03:30:18 GMT